Weather History for Red Oak, IA

Change the Weather History Date:

Tuesday, January 29, 2013

  Actual Average Record
Temperature  
Mean Temperature 48 °F -  
Max Temperature 62 °F 35 °F 62 °F (2013)
Min Temperature 33 °F 13 °F -20 °F (1966)
Degree Days  
Heating Degree Days 18    
Moisture  
Dew Point 34 °F    
Average Humidity 81    
Maximum Humidity 87    
Minimum Humidity 75    
Precipitation  
Precipitation 0.03 in - - ()
Sea Level Pressure  
Sea Level Pressure 29.61 in    
Wind  
Wind Speed 12 mph (NNW)    
Max Wind Speed 18 mph    
Max Gust Speed 30 mph    
Visibility 7 miles    
Events Rain , Snow    
Averages and records for this station are not official NWS values.
T = Trace of Precipitation, MM = Missing Value Source: NWS Daily Summary

Daily Weather History Graph

Daily Weather History Graph

Search for Another Location

Airport:

Trip Planner

Search our weather history database for the weather conditions in past years. The results will help you decide how hot, cold, wet, or windy it might be!

Date:

Astronomy

Jan. 29, 2013 Rise Set
Actual Time 7:34 AM CST 5:34 PM CST
Civil Twilight 7:04 AM CST 6:04 PM CST
Nautical Twilight 6:31 AM CST 6:37 PM CST
Astronomical Twilight 5:59 AM CST 7:09 PM CST
Moon 8:33 PM CST (1/29) 8:29 AM CST (1/29)
Length of Visible Light 10h 59m
Length of Day
10h 00m
Waning Gibbous, 93% of the Moon is Illuminated
Jan 29
Waning Gibbous
Feb 3
Last Quarter
Feb 10
New
Feb 17
First Quarter
Feb 25
Full

Hourly Weather History & Observations

Time (CST) Temp. Windchill Dew Point Humidity Pressure Visibility Wind Dir Wind Speed Gust Speed Precip Events Conditions
12:15 AM 59.0 °F - 53.6 °F 82% 29.53 in 10.0 mi South 8.1 mph - N/A   Mostly Cloudy
12:35 AM 60.8 °F - 55.4 °F 82% 29.52 in 7.0 mi West 13.8 mph 18.4 mph 0.01 in Rain Light Rain
12:55 AM 62.6 °F - 57.2 °F 82% 29.52 in 10.0 mi SSW 18.4 mph 29.9 mph 0.01 in   Overcast
1:15 AM 62.6 °F - 55.4 °F 77% 29.51 in 10.0 mi SSW 15.0 mph - N/A   Scattered Clouds
1:35 AM 62.6 °F - 57.2 °F 82% 29.51 in 10.0 mi SSW 11.5 mph 23.0 mph N/A   Mostly Cloudy
1:55 AM 53.6 °F - 46.4 °F 77% 29.55 in 5.0 mi West 16.1 mph 27.6 mph N/A   Haze
2:15 AM 48.2 °F - 42.8 °F 82% 29.56 in 3.0 mi WNW 15.0 mph - N/A   Haze
2:35 AM 46.4 °F 39.5 °F 41.0 °F 81% 29.57 in 4.0 mi WNW 17.3 mph 23.0 mph N/A   Haze
2:55 AM 44.6 °F 36.9 °F 39.2 °F 81% 29.58 in 4.0 mi NW 18.4 mph 21.9 mph N/A   Haze
3:15 AM 44.6 °F 37.4 °F 39.2 °F 81% 29.58 in 7.0 mi NW 16.1 mph 28.8 mph N/A   Overcast
3:35 AM 42.8 °F 36.6 °F 37.4 °F 81% 29.60 in 5.0 mi NW 11.5 mph 24.2 mph N/A   Haze
3:55 AM 41.0 °F 35.2 °F 35.6 °F 81% 29.62 in 7.0 mi NW 9.2 mph 19.6 mph N/A   Overcast
4:15 AM 41.0 °F 34.3 °F 35.6 °F 81% 29.61 in 10.0 mi NW 11.5 mph - N/A   Overcast
4:35 AM 41.0 °F 35.2 °F 35.6 °F 81% 29.61 in 10.0 mi NW 9.2 mph - N/A   Overcast
4:55 AM 39.2 °F 34.2 °F 35.6 °F 87% 29.61 in 10.0 mi NNW 6.9 mph - N/A   Overcast
5:15 AM 39.2 °F 33.6 °F 35.6 °F 87% 29.62 in 10.0 mi NW 8.1 mph - N/A   Overcast
5:35 AM 39.2 °F 33.6 °F 33.8 °F 81% 29.61 in 10.0 mi NNW 8.1 mph - N/A   Overcast
5:55 AM 39.2 °F 35.9 °F 33.8 °F 81% 29.64 in 10.0 mi NW 4.6 mph - N/A   Overcast
6:15 AM 39.2 °F 35.9 °F 33.8 °F 81% 29.62 in 10.0 mi NNW 4.6 mph - N/A   Overcast
6:35 AM 37.4 °F 32.1 °F 33.8 °F 87% 29.62 in 10.0 mi NNW 6.9 mph - N/A   Overcast
6:55 AM 37.4 °F 32.8 °F 33.8 °F 87% 29.62 in 10.0 mi NW 5.8 mph - N/A   Overcast
7:15 AM 37.4 °F 32.1 °F 33.8 °F 87% 29.65 in 7.0 mi WNW 6.9 mph - N/A   Overcast
7:35 AM 37.4 °F 32.8 °F 32.0 °F 81% 29.67 in 7.0 mi WNW 5.8 mph - N/A   Overcast
7:55 AM 37.4 °F 31.4 °F 32.0 °F 81% 29.65 in 7.0 mi WNW 8.1 mph - N/A   Overcast
8:15 AM 37.4 °F 30.8 °F 32.0 °F 81% 29.65 in 7.0 mi NW 9.2 mph - N/A   Overcast
8:35 AM 37.4 °F 30.3 °F 32.0 °F 81% 29.67 in 5.0 mi NW 10.4 mph 16.1 mph N/A   Haze
8:55 AM 37.4 °F 31.4 °F 32.0 °F 81% 29.67 in 4.0 mi NW 8.1 mph - N/A   Haze
9:15 AM 37.4 °F 31.4 °F 32.0 °F 81% 29.69 in 4.0 mi NW 8.1 mph - N/A   Haze
9:35 AM 37.4 °F 30.3 °F 32.0 °F 81% 29.68 in 4.0 mi NNW 10.4 mph - N/A   Haze
9:55 AM 37.4 °F 30.8 °F 32.0 °F 81% 29.67 in 4.0 mi NW 9.2 mph - N/A   Haze
10:15 AM 37.4 °F 31.4 °F 32.0 °F 81% 29.67 in 3.0 mi NNW 8.1 mph - N/A   Haze
10:35 AM 37.4 °F 29.3 °F 32.0 °F 81% 29.67 in 3.0 mi North 12.7 mph - N/A   Haze
10:55 AM 37.4 °F 29.8 °F 32.0 °F 81% 29.65 in 2.5 mi North 11.5 mph - N/A   Haze
11:15 AM 37.4 °F 29.3 °F 32.0 °F 81% 29.63 in 5.0 mi NNE 12.7 mph - N/A   Haze
11:35 AM 37.4 °F 30.3 °F 32.0 °F 81% 29.65 in 7.0 mi North 10.4 mph - N/A   Overcast
11:55 AM 37.4 °F 30.3 °F 32.0 °F 81% 29.64 in 10.0 mi North 10.4 mph - N/A   Overcast
12:15 PM 37.4 °F 30.8 °F 32.0 °F 81% 29.63 in 7.0 mi North 9.2 mph - N/A   Overcast
12:35 PM 37.4 °F 29.8 °F 32.0 °F 81% 29.63 in 7.0 mi North 11.5 mph - N/A   Overcast
12:55 PM 37.4 °F 30.3 °F 33.8 °F 87% 29.62 in 7.0 mi North 10.4 mph - N/A   Overcast
1:15 PM 37.4 °F 30.3 °F 33.8 °F 87% 29.60 in 10.0 mi North 10.4 mph - N/A   Overcast
1:35 PM 39.2 °F 31.6 °F 33.8 °F 81% 29.60 in 10.0 mi North 12.7 mph - N/A   Overcast
1:55 PM 39.2 °F 31.2 °F 33.8 °F 81% 29.60 in 10.0 mi North 13.8 mph - N/A   Overcast
2:15 PM 37.4 °F 29.3 °F 33.8 °F 87% 29.59 in 10.0 mi North 12.7 mph - N/A   Overcast
2:35 PM 37.4 °F 28.2 °F 32.0 °F 81% 29.58 in 7.0 mi North 16.1 mph - N/A   Overcast
2:55 PM 37.4 °F 28.9 °F 33.8 °F 87% 29.59 in 5.0 mi North 13.8 mph 17.3 mph N/A   Haze
3:15 PM 37.4 °F 28.9 °F 32.0 °F 81% 29.59 in 5.0 mi North 13.8 mph 18.4 mph N/A   Haze
3:35 PM 37.4 °F 29.3 °F 32.0 °F 81% 29.61 in 7.0 mi North 12.7 mph - N/A   Overcast
3:55 PM 37.4 °F 29.8 °F 32.0 °F 81% 29.60 in 7.0 mi North 11.5 mph 20.7 mph N/A   Overcast
4:15 PM 37.4 °F 28.9 °F 32.0 °F 81% 29.59 in 10.0 mi North 13.8 mph - N/A   Overcast
4:35 PM 37.4 °F 28.2 °F 32.0 °F 81% 29.60 in 10.0 mi North 16.1 mph - N/A   Overcast
4:55 PM 37.4 °F 28.2 °F 32.0 °F 81% 29.59 in 10.0 mi North 16.1 mph 20.7 mph N/A   Overcast
5:15 PM 37.4 °F 29.3 °F 30.2 °F 75% 29.59 in 10.0 mi North 12.7 mph - N/A   Overcast
5:35 PM 37.4 °F 29.8 °F 30.2 °F 75% 29.61 in 10.0 mi North 11.5 mph - N/A   Overcast
5:55 PM 37.4 °F 30.8 °F 30.2 °F 75% 29.62 in 10.0 mi North 9.2 mph - N/A   Overcast
6:15 PM 37.4 °F 29.8 °F 30.2 °F 75% 29.61 in 10.0 mi North 11.5 mph - N/A   Overcast
6:35 PM 37.4 °F 29.8 °F 30.2 °F 75% 29.62 in 10.0 mi North 11.5 mph - N/A   Overcast
6:55 PM 37.4 °F 29.3 °F 30.2 °F 75% 29.61 in 10.0 mi North 12.7 mph - N/A   Overcast
7:15 PM 35.6 °F 26.2 °F 30.2 °F 81% 29.60 in 7.0 mi North 15.0 mph 23.0 mph N/A   Overcast
7:35 PM 35.6 °F 26.2 °F 30.2 °F 81% 29.60 in 10.0 mi NNE 15.0 mph - N/A   Overcast
7:55 PM 35.6 °F 28.6 °F 30.2 °F 81% 29.62 in 10.0 mi North 9.2 mph 17.3 mph N/A   Overcast
8:15 PM 35.6 °F 26.6 °F 30.2 °F 81% 29.64 in 7.0 mi North 13.8 mph 19.6 mph N/A   Overcast
8:35 PM 35.6 °F 28.0 °F 30.2 °F 81% 29.65 in 2.0 mi North 10.4 mph - N/A Snow Light Snow
8:55 PM 35.6 °F 26.2 °F 30.2 °F 81% 29.63 in 1.8 mi North 15.0 mph - N/A Snow Light Snow
9:15 PM 35.6 °F 25.9 °F 30.2 °F 81% 29.61 in 2.0 mi North 16.1 mph - N/A Snow Light Snow
9:35 PM 35.6 °F 26.2 °F 30.2 °F 81% 29.59 in 2.0 mi NNE 15.0 mph 20.7 mph N/A Snow Light Snow
9:55 PM 35.6 °F 25.9 °F 30.2 °F 81% 29.58 in 4.0 mi North 16.1 mph 20.7 mph N/A Snow Light Snow
10:15 PM 35.6 °F 25.5 °F 30.2 °F 81% 29.59 in 5.0 mi North 17.3 mph 24.2 mph N/A Snow Light Snow
10:35 PM 35.6 °F 25.2 °F 30.2 °F 81% 29.61 in 7.0 mi North 18.4 mph 27.6 mph N/A   Overcast
10:55 PM 35.6 °F 26.2 °F 30.2 °F 81% 29.58 in 7.0 mi North 15.0 mph 20.7 mph 0.01 in Snow Light Snow
11:15 PM 35.6 °F 25.9 °F 28.4 °F 75% 29.58 in 2.5 mi North 16.1 mph 26.5 mph N/A Snow Light Snow
11:35 PM 33.8 °F 22.8 °F 28.4 °F 81% 29.57 in 2.0 mi North 18.4 mph 25.3 mph N/A Snow Light Snow
11:55 PM 33.8 °F 24.3 °F 28.4 °F 81% 29.57 in 1.8 mi North 13.8 mph 19.6 mph 0.01 in Snow Light Snow